Regional Weather Roundup
Issued by NWS

Home | Current Version | Previous Version | Text Only | Print | Product List | Glossary On
Versions: 1 2 3 4 5 6 7 8 9 10 11 12 13 14 15 16 17 18 19 20 21 22 23 24 25 26 27
000
ASUS45 KREV 092310
RWRNV
NEVADA REGIONAL WEATHER ROUNDUP
NATIONAL WEATHER SERVICE RENO NV
300 PM PST FRI DEC 09 2016

NOTE: "FAIR" INDICATES FEW OR NO CLOUDS BELOW 12,000 FEET WITH NO
SIGNIFICANT WEATHER AND/OR OBSTRUCTIONS TO VISIBILITY.

NVZ001-003-004-100000-
WESTERN NEVADA

CITY           SKY/WX    TMP DP  RH WIND       PRES   REMARKS
RENO           PTSUNNY   56  33  42 SW9G20    30.11F
CARSON CITY    CLOUDY    54  30  40 SW10G16   30.15F
MINDEN         FAIR      57  28  33 S13G18    30.14S
PYRAMID LAKE     N/A     61 N/A N/A S13         N/A
FALLON         CLOUDY    57  23  26 S15       30.08F
LOVELOCK       MOSUNNY   51  30  44 SW9       30.08F
HAWTHORNE        N/A     54  21  28 CALM      30.14F
$$

NVZ002-CAZ072-073-100000-
NORTHERN AND CENTRAL SIERRA

CITY           SKY/WX    TMP DP  RH WIND       PRES   REMARKS
S. LAKE TAHOE  PTSUNNY   47  32  56 S15G22    30.18F
TRUCKEE        PTSUNNY   43  32  65 S12G17    30.19F
SQUAW VLY 8000   N/A     32  32 100 SW12        N/A
SUSANVILLE     PTSUNNY   54  37  54 W10G17    30.09R
MAMMOTH LAKES  FAIR      52  25  34 W8        30.25F
BRIDGEPORT       N/A     48  24  39 S10G18    30.18S
$$

NVZ030-031-036-100000-
NORTHERN NEVADA

CITY           SKY/WX    TMP DP  RH WIND       PRES   REMARKS
ELKO           PTSUNNY   42  25  50 SW6       30.10F
WINNEMUCCA     MOSUNNY   49  33  54 S8        30.07S
WENDOVER       PTCLDY    34  21  60 CALM      30.15F
$$

NVZ035-037-100000-
CENTRAL NEVADA

CITY           SKY/WX    TMP DP  RH WIND       PRES   REMARKS
ELY            PTSUNNY   42  21  43 NE7       30.18F
EUREKA           N/A     43  23  45 CALM      30.16S
$$

NVZ013-014-100000-
SOUTH CENTRAL NEVADA

CITY           SKY/WX    TMP DP  RH WIND       PRES   REMARKS
TONOPAH        CLOUDY    44  31  60 VRB3      30.22F
$$

NVZ017-020-022-100000-
SOUTHERN NEVADA

CITY           SKY/WX    TMP DP  RH WIND       PRES   REMARKS
LAS VEGAS      PTSUNNY   55  10  16 N5        30.23S
N. LAS VEGAS   CLOUDY    54  11  18 SE3       30.23S
NELLIS AFB     CLOUDY    55  13  18 CALM      30.23S
HENDERSON      PTSUNNY   53  14  21 CALM      30.25S
MERCURY        PTSUNNY   51  14  22 SE9       30.20F
$$




USA.gov is the U.S. government's official web portal to all federal, state and local government web resources and services.